This is the latest recevied weather packets stored in our database for station/object WD7CGF. If no packets are shown the sender has not sent any weather packets the latest 10 day(s).
| Time | Temp. | Humidity | Pressure | Rain* | Wind** | Luminosity | Snow |
|---|---|---|---|---|---|---|---|
| 1777854511 | 27.78° C | 28% | 1007.9 hPa | 0 mm | - | - | - |
| 1777853919 | 27.78° C | 30% | 1007.9 hPa | 0 mm | - | - | - |
| 1777853329 | 27.78° C | 26% | 1008.2 hPa | 0 mm | - | - | - |
| 1777852714 | 27.78° C | 28% | 1008.3 hPa | 0 mm | - | - | - |
| 1777852125 | 28.33° C | 27% | 1008.3 hPa | 0 mm | - | - | - |
| 1777851514 | 28.33° C | 26% | 1008.3 hPa | 0 mm | - | - | - |
| 1777850927 | 28.33° C | 27% | 1008.7 hPa | 0 mm | - | - | - |
| 1777850316 | 28.33° C | 26% | 1008.7 hPa | 0 mm | - | - | - |
| 1777849713 | 28.33° C | 29% | 1008.8 hPa | 0 mm | - | - | - |
| 1777849123 | 28.89° C | 26% | 1009 hPa | 0 mm | - | - | - |
| 1777848514 | 28.89° C | 28% | 1009 hPa | 0 mm | - | - | - |
| 1777847927 | 28.89° C | 27% | 1009.3 hPa | 0 mm | - | - | - |
| 1777847317 | 28.89° C | 29% | 1009.5 hPa | 0 mm | - | - | - |
| 1777846727 | 28.89° C | 28% | 1009.5 hPa | 0 mm | - | - | - |
| 1777846117 | 28.33° C | 26% | 1010.7 hPa | 0 mm | - | - | - |
| 1777845525 | 28.33° C | 30% | 1010 hPa | 0 mm | - | - | - |
| 1777844920 | 27.78° C | 28% | 1010 hPa | 0 mm | - | - | - |
| 1777844309 | 27.78° C | 26% | 1011.1 hPa | 0 mm | - | - | - |
| 1777843721 | 28.33° C | 31% | 1011.2 hPa | 0 mm | - | - | - |
| 1777843111 | 27.78° C | 26% | 1011.2 hPa | 0 mm | - | - | - |
| 1777842525 | 28.33° C | 28% | 1010.6 hPa | 0 mm | - | - | - |
| 1777841914 | 27.78° C | 32% | 1011.7 hPa | 0 mm | - | - | - |
| 1777841325 | 27.78° C | 32% | 1011.7 hPa | 0 mm | - | - | - |
| 1777840714 | 27.78° C | 29% | 1011.1 hPa | 0 mm | - | - | - |
| 1777840122 | 27.22° C | 28% | 1012.2 hPa | 0 mm | - | - | - |
* Rain latest hour (hover to see other rain measurements)
** Current wind speed in m/s (hover to see current wind gust speed)